| time (UTC) | temp C | wind direction | speed KPH | gust KPH | rain 1hr cm | rain 24hr cm | rain mn cm | humidity % | barometer mb |
| 20260504082002 | 8 | 185 | 6.4 | 16.1 | 0.00 | 0.00 | 0.00 | 59 | 1017.5 |
| 20260504081002 | 8 | 172 | 8.0 | 11.3 | 0.00 | 0.00 | 0.00 | 61 | 1017.5 |
| 20260504080503 | 8 | 172 | 8.0 | 11.3 | 0.00 | 0.00 | 0.00 | 61 | 1017.6 |
| 20260504050503 | 9 | 183 | 11.3 | 14.5 | 0.00 | 0.00 | 0.00 | 55 | 1018.0 |
| 20260504050004 | 9 | 219 | 8.0 | 14.5 | 0.00 | 0.00 | 0.00 | 55 | 1018.0 |
| 20260504045003 | 8 | 221 | 6.4 | 14.5 | 0.00 | 0.00 | 0.00 | 54 | 1017.9 |
| 20260504044504 | 8 | 189 | 9.7 | 14.5 | 0.00 | 0.00 | 0.00 | 55 | 1017.9 |
| 20260504044003 | 8 | 196 | 6.4 | 14.5 | 0.00 | 0.00 | 0.00 | 55 | 1017.9 |
| 20260504043502 | 8 | 184 | 9.7 | 14.5 | 0.00 | 0.00 | 0.00 | 56 | 1017.8 |
| 20260504043005 | 8 | 202 | 6.4 | 14.5 | 0.00 | 0.00 | 0.00 | 57 | 1017.7 |
| 20260504042503 | 8 | 188 | 9.7 | 14.5 | 0.00 | 0.00 | 0.00 | 56 | 1017.6 |
| 20260504042003 | 8 | 191 | 8.0 | 19.3 | 0.00 | 0.00 | 0.00 | 57 | 1017.8 |
| 20260504041003 | 7 | 194 | 8.0 | 19.3 | 0.00 | 0.00 | 0.00 | 61 | 1017.7 |
| 20260504040502 | 7 | 197 | 9.7 | 11.3 | 0.00 | 0.00 | 0.00 | 63 | 1018.0 |
| 20260504040011 | 6 | 181 | 6.4 | 14.5 | 0.00 | 0.00 | 0.00 | 65 | 1017.8 |
| 20260504035503 | 5 | 200 | 6.4 | 14.5 | 0.00 | 0.00 | 0.00 | 69 | 1017.9 |
| 20260504034503 | 2 | 219 | 4.8 | 8.0 | 0.00 | 0.00 | 0.00 | 84 | 1018.0 |
| 20260504034002 | 2 | 220 | 1.6 | 8.0 | 0.00 | 0.00 | 0.00 | 84 | 1017.9 |
| 20260504033004 | 1 | 221 | 1.6 | 8.0 | 0.00 | 0.00 | 0.00 | 83 | 1018.0 |
| 20260504032503 | 1 | 221 | 1.6 | 8.0 | 0.00 | 0.00 | 0.00 | 83 | 1017.9 |
| 20260504032002 | 2 | 220 | 1.6 | 3.2 | 0.00 | 0.00 | 0.00 | 83 | 1017.9 |
| 20260504031503 | 1 | 220 | 1.6 | 4.8 | 0.00 | 0.00 | 0.00 | 84 | 1018.1 |
| 20260504031003 | 1 | 221 | 3.2 | 4.8 | 0.00 | 0.00 | 0.00 | 85 | 1018.0 |
| 20260504030504 | 1 | 220 | 3.2 | 4.8 | 0.00 | 0.00 | 0.00 | 84 | 1018.0 |
| 20260504030003 | 1 | 221 | 1.6 | 4.8 | 0.00 | 0.00 | 0.00 | 83 | 1018.0 |
| 20260504025503 | 1 | 221 | 1.6 | 4.8 | 0.00 | 0.00 | 0.00 | 83 | 1017.9 |
| 20260504025003 | 1 | 220 | 4.8 | 4.8 | 0.00 | 0.00 | 0.00 | 84 | 1018.0 |
| 20260504024003 | 2 | 221 | 3.2 | 4.8 | 0.00 | 0.00 | 0.00 | 82 | 1018.0 |
| 20260504023504 | 2 | 0 | 0.0 | 3.2 | 0.00 | 0.00 | 0.00 | 83 | 1018.0 |
| 20260504023003 | 2 | 220 | 1.6 | 3.2 | 0.00 | 0.00 | 0.00 | 83 | 1018.0 |
| 20260504022002 | 2 | 0 | 0.0 | 1.6 | 0.00 | 0.00 | 0.00 | 81 | 1018.0 |
| 20260504021503 | 2 | 0 | 0.0 | 1.6 | 0.00 | 0.00 | 0.00 | 81 | 1017.9 |
| 20260504021003 | 2 | 0 | 0.0 | 3.2 | 0.00 | 0.00 | 0.00 | 81 | 1017.8 |
| 20260504020004 | 2 | 220 | 0.0 | 1.6 | 0.00 | 0.00 | 0.00 | 79 | 1017.7 |
| 20260504015003 | 3 | 0 | 0.0 | 4.8 | 0.00 | 0.00 | 0.00 | 78 | 1017.8 |
| 20260504014002 | 4 | 220 | 3.2 | 3.2 | 0.00 | 0.00 | 0.00 | 75 | 1017.7 |
| 20260504013503 | 4 | 0 | 0.0 | 3.2 | 0.00 | 0.00 | 0.00 | 74 | 1017.6 |
| 20260504013004 | 4 | 0 | 0.0 | 3.2 | 0.00 | 0.00 | 0.00 | 74 | 1017.6 |
| 20260504012503 | 4 | 221 | 0.0 | 1.6 | 0.00 | 0.00 | 0.00 | 73 | 1017.5 |
| 20260504012004 | 5 | 220 | 1.6 | 3.2 | 0.00 | 0.00 | 0.00 | 73 | 1017.4 |
| 20260504011503 | 5 | 220 | 0.0 | 3.2 | 0.00 | 0.00 | 0.00 | 73 | 1017.4 |
| 20260504011003 | 5 | 0 | 0.0 | 1.6 | 0.00 | 0.00 | 0.00 | 71 | 1017.4 |
| 20260504010503 | 5 | 0 | 0.0 | 0.0 | 0.00 | 0.00 | 0.00 | 70 | 1017.3 |
| 20260504010003 | 6 | 0 | 0.0 | 0.0 | 0.00 | 0.00 | 0.00 | 67 | 1017.3 |
| 20260504005503 | 6 | 0 | 0.0 | 0.0 | 0.00 | 0.00 | 0.00 | 66 | 1017.2 |
| 20260504004504 | 7 | 0 | 0.0 | 1.6 | 0.00 | 0.00 | 0.00 | 62 | 1017.2 |
| 20260504004003 | 7 | 0 | 0.0 | 0.0 | 0.00 | 0.00 | 0.00 | 61 | 1017.2 |
| 20260504003503 | 7 | 0 | 0.0 | 3.2 | 0.00 | 0.00 | 0.00 | 59 | 1017.1 |
| 20260504003003 | 8 | 220 | 0.0 | 3.2 | 0.00 | 0.00 | 0.00 | 58 | 1017.0 |
| 20260504002502 | 8 | 0 | 0.0 | 3.2 | 0.00 | 0.00 | 0.00 | 56 | 1017.0 |
| 20260504002003 | 10 | 221 | 1.6 | 4.8 | 0.00 | 0.00 | 0.00 | 54 | 1016.9 |
| 20260504001003 | 11 | 220 | 4.8 | 8.0 | 0.00 | 0.00 | 0.00 | 44 | 1017.0 |
| 20260504000005 | 12 | 221 | 1.6 | 4.8 | 0.00 | 0.00 | 0.00 | 40 | 1017.2 |
| 20260503235503 | 12 | 220 | 3.2 | 4.8 | 0.00 | 0.00 | 0.00 | 41 | 1017.1 |
| 20260503235003 | 12 | 221 | 1.6 | 9.7 | 0.00 | 0.00 | 0.00 | 35 | 1017.1 |
| 20260503234503 | 13 | 233 | 6.4 | 9.7 | 0.00 | 0.00 | 0.00 | 35 | 1017.0 |
| 20260503234003 | 13 | 262 | 1.6 | 8.0 | 0.00 | 0.00 | 0.00 | 35 | 1017.1 |
| 20260503233503 | 13 | 262 | 1.6 | 19.3 | 0.00 | 0.00 | 0.00 | 34 | 1017.0 |
| 20260503233004 | 13 | 262 | 6.4 | 19.3 | 0.00 | 0.00 | 0.00 | 33 | 1016.9 |
| 20260503232503 | 13 | 241 | 4.8 | 14.5 | 0.00 | 0.00 | 0.00 | 33 | 1017.0 |
| 20260503232002 | 13 | 273 | 4.8 | 14.5 | 0.00 | 0.00 | 0.00 | 33 | 1016.9 |
| 20260503231503 | 13 | 224 | 8.0 | 16.1 | 0.00 | 0.00 | 0.00 | 33 | 1016.8 |
| 20260503231003 | 13 | 213 | 9.7 | 16.1 | 0.00 | 0.00 | 0.00 | 32 | 1016.8 |
| 20260503230503 | 13 | 228 | 9.7 | 19.3 | 0.00 | 0.00 | 0.00 | 32 | 1016.7 |
| 20260503230004 | 13 | 267 | 12.9 | 19.3 | 0.00 | 0.00 | 0.00 | 32 | 1016.8 |
| 20260503225503 | 14 | 223 | 11.3 | 20.9 | 0.00 | 0.00 | 0.00 | 34 | 1016.8 |
| 20260503225003 | 13 | 270 | 9.7 | 20.9 | 0.00 | 0.00 | 0.00 | 32 | 1016.8 |
| 20260503224504 | 13 | 219 | 11.3 | 20.9 | 0.00 | 0.00 | 0.00 | 32 | 1016.8 |
| 20260503224002 | 14 | 210 | 11.3 | 22.5 | 0.00 | 0.00 | 0.00 | 31 | 1016.9 |
| 20260503223503 | 14 | 253 | 12.9 | 22.5 | 0.00 | 0.00 | 0.00 | 32 | 1017.0 |
| 20260503223003 | 14 | 280 | 9.7 | 19.3 | 0.00 | 0.00 | 0.00 | 31 | 1016.9 |
| 20260503222503 | 14 | 254 | 6.4 | 19.3 | 0.00 | 0.00 | 0.00 | 34 | 1017.0 |
| 20260503222003 | 13 | 271 | 4.8 | 22.5 | 0.00 | 0.00 | 0.00 | 31 | 1016.9 |
| 20260503221504 | 14 | 241 | 12.9 | 22.5 | 0.00 | 0.00 | 0.00 | 33 | 1017.1 |
| 20260503221003 | 14 | 307 | 6.4 | 22.5 | 0.00 | 0.00 | 0.00 | 34 | 1017.1 |
| 20260503220503 | 13 | 318 | 14.5 | 22.5 | 0.00 | 0.00 | 0.00 | 33 | 1017.1 |
| 20260503220004 | 14 | 256 | 11.3 | 22.5 | 0.00 | 0.00 | 0.00 | 36 | 1017.1 |
| 20260503214504 | 14 | 264 | 9.7 | 16.1 | 0.00 | 0.00 | 0.00 | 34 | 1017.1 |
| 20260503214003 | 14 | 275 | 9.7 | 22.5 | 0.00 | 0.00 | 0.00 | 35 | 1017.2 |
| 20260503213503 | 13 | 252 | 3.2 | 25.7 | 0.00 | 0.00 | 0.00 | 34 | 1017.3 |
| 20260503213003 | 13 | 273 | 19.3 | 25.7 | 0.00 | 0.00 | 0.00 | 36 | 1017.3 |
| 20260503212503 | 13 | 328 | 4.8 | 20.9 | 0.00 | 0.00 | 0.00 | 34 | 1017.2 |
| 20260503212003 | 13 | 247 | 11.3 | 24.1 | 0.00 | 0.00 | 0.00 | 35 | 1017.3 |
| 20260503211504 | 14 | 285 | 9.7 | 24.1 | 0.00 | 0.00 | 0.00 | 35 | 1017.3 |
| 20260503211003 | 13 | 269 | 9.7 | 24.1 | 0.00 | 0.00 | 0.00 | 36 | 1017.2 |
| 20260503210503 | 13 | 309 | 12.9 | 25.7 | 0.00 | 0.00 | 0.00 | 36 | 1017.2 |
| 20260503205003 | 13 | 308 | 17.7 | 24.1 | 0.00 | 0.00 | 0.00 | 37 | 1017.3 |
| 20260503204503 | 13 | 353 | 14.5 | 24.1 | 0.00 | 0.00 | 0.00 | 35 | 1017.4 |
| 20260503204003 | 13 | 259 | 16.1 | 25.7 | 0.00 | 0.00 | 0.00 | 37 | 1017.5 |
| 20260503203503 | 13 | 272 | 8.0 | 27.4 | 0.00 | 0.00 | 0.00 | 35 | 1017.6 |
| 20260503203003 | 13 | 249 | 17.7 | 27.4 | 0.00 | 0.00 | 0.00 | 35 | 1017.6 |
| 20260503202503 | 13 | 295 | 8.0 | 25.7 | 0.00 | 0.00 | 0.00 | 36 | 1017.6 |
| 20260503202003 | 13 | 298 | 9.7 | 27.4 | 0.00 | 0.00 | 0.00 | 40 | 1017.5 |
| 20260503201504 | 13 | 293 | 17.7 | 27.4 | 0.00 | 0.00 | 0.00 | 34 | 1017.7 |
| 20260503200503 | 13 | 337 | 9.7 | 29.0 | 0.00 | 0.00 | 0.00 | 37 | 1017.9 |
| 20260503195503 | 13 | 202 | 24.1 | 33.8 | 0.00 | 0.00 | 0.00 | 36 | 1018.0 |
| 20260503195003 | 12 | 312 | 12.9 | 32.2 | 0.00 | 0.00 | 0.00 | 38 | 1018.1 |
| 20260503194505 | 12 | 322 | 16.1 | 32.2 | 0.00 | 0.00 | 0.00 | 36 | 1018.3 |
| 20260503194004 | 12 | 273 | 8.0 | 29.0 | 0.00 | 0.00 | 0.00 | 38 | 1018.2 |
| 20260503193503 | 12 | 324 | 11.3 | 32.2 | 0.00 | 0.00 | 0.00 | 40 | 1018.2 |
| 20260503193004 | 12 | 329 | 16.1 | 32.2 | 0.00 | 0.00 | 0.00 | 37 | 1018.3 |
| 20260503192503 | 12 | 263 | 19.3 | 32.2 | 0.00 | 0.00 | 0.00 | 38 | 1018.2 |
| 20260503192002 | 12 | 266 | 11.3 | 38.6 | 0.00 | 0.00 | 0.00 | 36 | 1018.3 |
| 20260503191503 | 12 | 274 | 16.1 | 38.6 | 0.00 | 0.00 | 0.00 | 37 | 1018.5 |
| 20260503191003 | 12 | 348 | 8.0 | 27.4 | 0.00 | 0.00 | 0.00 | 36 | 1018.3 |
| 20260503190503 | 12 | 333 | 19.3 | 25.7 | 0.00 | 0.00 | 0.00 | 39 | 1018.4 |
| 20260503190004 | 11 | 233 | 4.8 | 24.1 | 0.00 | 0.00 | 0.00 | 43 | 1018.4 |
| 20260503184504 | 11 | 296 | 14.5 | 24.1 | 0.00 | 0.00 | 0.00 | 42 | 1018.7 |
| 20260503184003 | 11 | 316 | 19.3 | 29.0 | 0.00 | 0.00 | 0.00 | 44 | 1018.9 |
| 20260503183503 | 11 | 324 | 8.0 | 29.0 | 0.00 | 0.00 | 0.00 | 42 | 1019.1 |
| 20260503183003 | 11 | 300 | 16.1 | 25.7 | 0.00 | 0.00 | 0.00 | 43 | 1019.1 |
| 20260503182503 | 11 | 318 | 9.7 | 25.7 | 0.00 | 0.00 | 0.00 | 42 | 1019.0 |
| 20260503182005 | 11 | 301 | 8.0 | 32.2 | 0.00 | 0.00 | 0.00 | 43 | 1019.0 |
| 20260503181003 | 11 | 333 | 16.1 | 29.0 | 0.00 | 0.00 | 0.00 | 43 | 1019.2 |
| 20260503180503 | 11 | 271 | 16.1 | 29.0 | 0.00 | 0.00 | 0.00 | 46 | 1019.2 |
| 20260503180004 | 10 | 280 | 19.3 | 25.7 | 0.00 | 0.00 | 0.00 | 47 | 1019.2 |
| 20260503174504 | 10 | 274 | 14.5 | 35.4 | 0.00 | 0.00 | 0.00 | 49 | 1019.1 |
| 20260503174003 | 10 | 278 | 11.3 | 35.4 | 0.00 | 0.00 | 0.00 | 50 | 1019.2 |
| 20260503173503 | 10 | 272 | 11.3 | 24.1 | 0.00 | 0.00 | 0.00 | 49 | 1019.3 |
| 20260503172504 | 10 | 214 | 11.3 | 33.8 | 0.00 | 0.00 | 0.00 | 53 | 1019.3 |
| 20260503172003 | 10 | 250 | 22.5 | 33.8 | 0.00 | 0.00 | 0.00 | 48 | 1019.4 |
| 20260503171503 | 10 | 277 | 9.7 | 25.7 | 0.00 | 0.00 | 0.00 | 50 | 1019.5 |
| 20260503171003 | 10 | 262 | 17.7 | 25.7 | 0.00 | 0.00 | 0.00 | 52 | 1019.5 |
| 20260503170502 | 9 | 218 | 9.7 | 27.4 | 0.00 | 0.00 | 0.00 | 48 | 1019.6 |
| 20260503151003 | 7 | 301 | 8.0 | 20.9 | 0.00 | 0.00 | 0.00 | 55 | 1020.1 |
| 20260503131004 | 4 | 289 | 9.7 | 24.1 | 0.00 | 0.00 | 0.00 | 65 | 1019.8 |
| 20260503130503 | 4 | 354 | 12.9 | 25.7 | 0.00 | 0.00 | 0.00 | 63 | 1019.8 |
| 20260503110503 | 1 | 262 | 0.0 | 8.0 | 0.00 | 0.00 | 0.00 | 74 | 1018.4 |